| time (UTC) | temp F | wind direction | speed MPH | gust MPH | rain 1hr in | rain 24hr in | rain mn in | humidity % | barometer mb |
| 20260504193036 | 69 | 186 | 4.0 | 15.0 | 0.00 | 0.00 | 0.00 | 38 | 1004.9 |
| 20260504191544 | 70 | 246 | 6.0 | 13.0 | 0.00 | 0.00 | 0.00 | 37 | 1005.0 |
| 20260504190050 | 71 | 340 | 5.0 | 20.0 | 0.00 | 0.00 | 0.00 | 37 | 1005.2 |
| 20260504184558 | 71 | 202 | 8.0 | 16.0 | 0.00 | 0.00 | 0.00 | 38 | 1005.2 |
| 20260504183040 | 70 | 209 | 4.0 | 13.0 | 0.00 | 0.00 | 0.00 | 38 | 1005.2 |
| 20260504181535 | 69 | 233 | 3.0 | 15.0 | 0.00 | 0.00 | 0.00 | 37 | 1005.3 |
| 20260504180045 | 71 | 234 | 5.0 | 19.0 | 0.00 | 0.00 | 0.00 | 36 | 1005.3 |
| 20260504174542 | 72 | 261 | 4.0 | 15.0 | 0.00 | 0.00 | 0.00 | 34 | 1005.2 |
| 20260504173041 | 71 | 236 | 5.0 | 18.0 | 0.00 | 0.00 | 0.00 | 37 | 1005.5 |
| 20260504171546 | 69 | 244 | 8.0 | 21.0 | 0.00 | 0.00 | 0.00 | 37 | 1005.6 |
| 20260504081540 | 38 | 0 | 0.0 | 0.0 | 0.00 | 0.02 | 0.00 | 89 | 1008.7 |
| 20260504044543 | 32 | 0 | 0.0 | 0.0 | 0.00 | 0.02 | 0.00 | 91 | 1008.8 |
| 20260504043040 | 32 | 0 | 0.0 | 0.0 | 0.00 | 0.02 | 0.00 | 91 | 1008.8 |
| 20260504041542 | 32 | 0 | 0.0 | 0.0 | 0.00 | 0.02 | 0.00 | 91 | 1008.7 |
| 20260504040038 | 32 | 0 | 0.0 | 1.0 | 0.00 | 0.02 | 0.00 | 90 | 1008.7 |
| 20260504034600 | 32 | 0 | 0.0 | 0.0 | 0.00 | 0.02 | 0.02 | 90 | 1008.7 |
| 20260504033042 | 32 | 0 | 0.0 | 0.0 | 0.00 | 0.02 | 0.02 | 89 | 1008.7 |
| 20260504031542 | 33 | 0 | 0.0 | 0.0 | 0.00 | 0.02 | 0.02 | 89 | 1008.6 |
| 20260504030043 | 33 | 0 | 0.0 | 0.0 | 0.00 | 0.02 | 0.02 | 88 | 1008.5 |
| 20260504024536 | 34 | 0 | 0.0 | 0.0 | 0.00 | 0.06 | 0.02 | 87 | 1008.6 |
| 20260504023036 | 34 | 0 | 0.0 | 0.0 | 0.00 | 0.06 | 0.02 | 87 | 1008.6 |
| 20260504021543 | 35 | 0 | 0.0 | 0.0 | 0.00 | 0.06 | 0.02 | 85 | 1008.5 |
| 20260504020041 | 35 | 0 | 0.0 | 0.0 | 0.00 | 0.06 | 0.02 | 84 | 1008.5 |
| 20260504014553 | 36 | 0 | 0.0 | 0.0 | 0.00 | 0.06 | 0.02 | 82 | 1008.5 |
| 20260504013042 | 37 | 0 | 0.0 | 0.0 | 0.00 | 0.06 | 0.02 | 81 | 1008.4 |
| 20260504011542 | 38 | 0 | 0.0 | 0.0 | 0.00 | 0.06 | 0.02 | 79 | 1008.2 |
| 20260504010045 | 39 | 0 | 0.0 | 0.0 | 0.00 | 0.06 | 0.02 | 77 | 1008.1 |
| 20260504004543 | 41 | 0 | 0.0 | 0.0 | 0.00 | 0.06 | 0.02 | 74 | 1007.9 |
| 20260504003049 | 42 | 0 | 0.0 | 0.0 | 0.00 | 0.06 | 0.02 | 70 | 1007.8 |
| 20260504001542 | 44 | 0 | 0.0 | 0.0 | 0.00 | 0.06 | 0.02 | 70 | 1007.6 |
| 20260504000041 | 46 | 0 | 0.0 | 0.0 | 0.00 | 0.06 | 0.02 | 61 | 1007.5 |
| 20260503234548 | 48 | 0 | 0.0 | 1.0 | 0.00 | 0.07 | 0.02 | 55 | 1007.3 |
| 20260503233044 | 49 | 0 | 0.0 | 5.0 | 0.00 | 0.07 | 0.02 | 51 | 1007.1 |
| 20260503231542 | 49 | 250 | 2.0 | 8.0 | 0.00 | 0.07 | 0.02 | 50 | 1007.1 |
| 20260503230043 | 50 | 288 | 4.0 | 15.0 | 0.00 | 0.07 | 0.02 | 49 | 1006.9 |
| 20260503224540 | 50 | 251 | 6.0 | 13.0 | 0.00 | 0.07 | 0.02 | 48 | 1006.7 |
| 20260503223046 | 50 | 323 | 3.0 | 12.0 | 0.00 | 0.07 | 0.02 | 49 | 1006.6 |
| 20260503221544 | 51 | 328 | 1.0 | 11.0 | 0.00 | 0.07 | 0.02 | 47 | 1006.6 |
| 20260503220049 | 51 | 355 | 5.0 | 16.0 | 0.00 | 0.07 | 0.02 | 44 | 1006.5 |
| 20260503214540 | 51 | 249 | 5.0 | 14.0 | 0.00 | 0.20 | 0.02 | 44 | 1006.2 |
| 20260503213042 | 51 | 331 | 4.0 | 15.0 | 0.00 | 0.20 | 0.02 | 45 | 1006.0 |
| 20260503211547 | 52 | 346 | 6.0 | 15.0 | 0.00 | 0.20 | 0.02 | 43 | 1005.9 |
| 20260503210049 | 52 | 336 | 7.0 | 17.0 | 0.00 | 0.20 | 0.02 | 45 | 1005.9 |
| 20260503204542 | 51 | 346 | 6.0 | 16.0 | 0.00 | 0.21 | 0.02 | 46 | 1005.6 |
| 20260503203041 | 52 | 290 | 6.0 | 14.0 | 0.00 | 0.21 | 0.02 | 43 | 1005.5 |
| 20260503201541 | 53 | 24 | 6.0 | 17.0 | 0.00 | 0.21 | 0.02 | 44 | 1005.4 |
| 20260503200043 | 52 | 319 | 3.0 | 12.0 | 0.00 | 0.21 | 0.02 | 47 | 1005.5 |
| 20260503194544 | 53 | 347 | 6.0 | 13.0 | 0.00 | 0.21 | 0.02 | 43 | 1005.3 |